COSMOS 1275 DEB

Satellite information

Favourite Embed

Satellite Type and Status

DEBRISIN ORBIT

Key statistics

Satellite COSMOS 1275 DEB at a glance.

Uptime

16049

Days in orbit

Revolutions

≈ 14.3

Per day

Orbit

LEO

Low Earth Orbit

Inclination

82.9

Latest

Satellite identification and parameters

Extended collection of information and parameters for COSMOS 1275 DEB.

Object identification

Identified? True

Debris? True

Object name: COSMOS 1275 DEB

International designator: 1981-053LK

Object number (NORAD): 17640

Object ID (CCSDS): 17640

Country: COMMONWEALTH OF INDEPENDENT STATES (CIS)

Current information (Y/N): Y

RCS size: SMALL

Orbital parameters

Period: 100.593 minutes

Inclination: 82.9127 deg

SMA: 7164.831 km

Apoapsis: 803.377 km

Periapsis: 770.016 km

RAAN: 310.5162 deg

Eccentricy: 0.0023281

Argument of periapsis: 331.4718 deg

Mean anomaly: 28.5193 deg

Mean motion: 14.31508127 rev/day

Mean motion (dot): 0.00002993 rev/day2

B* drag term: 0.0011171 1/REarth

Two-line elements (TLE)

Creation date: May 12, 2025, 7:41 p.m.

Reference frame: TEME

Reference center: EARTH

Epoch: May 12, 2025, 11:09 a.m. UTC

TLE line 0: 0 COSMOS 1275 DEB

TLE line 1: 1 17640U 81053LK 25132.46496112 .00002993 00000-0 11171-2 0 9997

TLE line 2: 2 17640 82.9127 310.5162 0023281 331.4718 28.5193 14.31508127753779

Live tracking on map

Real-time ground track for satellite COSMOS 1275 DEB.

In-orbit conjunctions

A list of the most updated potential collisions computed for object COSMOS 1275 DEB.

Target Orbit TCA Probability of collision Miss distance Type
CZ-6A DEB LEO 2024-11-11 23:20:48 0.0001923442 169.0 (m) DEBRIS
SL-16 DEB LEO 2024-09-06 17:43:53 0.0002827841 137.0 (m) DEBRIS
FENGYUN 1C DEB SSO 2024-07-22 11:55:18 0.0001061096 77.0 (m) DEBRIS
FENGYUN 1C DEB SSO 2024-06-05 01:46:02 0.0001356469 86.0 (m) DEBRIS

Associated space launch

Navigation satellite providing location information for the Tsiklon-B navigation system

COSMOS 1275 DEB was lifted into orbit during the mission ‘Kosmos-3M | Parus 27’, on board a Kosmos-3M space rocket.

The launch took place on June 4, 1981, 3:41 p.m. from 132/2.

For more information about the launch, click the button.

Launch to space Kosmos-3M | Parus 27
Kosmos-3M | Parus 27

Agency: N/A

Status: Launch Successful

Launch date: June 4, 1981, 3:41 p.m. UTC

Rocket: Kosmos-3M

Launch pad: 132/2

Location: Plesetsk Cosmodrome, Russian Federation

...

Latest news about this satellite

There are no fresh news available about this satellite. Check back as we update our databases every day.


Newsletter sign-up

Weekly statistics, charts and insights to help you stay on top of the space industry.